Weather in Privolzhsky

Russia / Volgograd Oblast     48°14′23″N   44°34′39″E
temp.,
°C
wind,
m/s
gust,
m/s
humid.,
%
clouds,
%
prec.,
mm/h
press.,
hPa
HPBL,
m
1 august, sun
sun100:00+25sse22240 0.0 101011
03:00+24se12290 0.0 101113
06:00+26s22290 0.0 101121
09:00+33sse23190 0.0 1012823
12:00+36sse22160 0.0 10113580
15:00+37se32147 0.0 10103921
18:00+36se43159 0.0 10091961
21:00+30s33197 0.0 101014
2 august, mon
mon200:00+27nw11232 0.0 101011
03:00+25ne01280 0.0 101011
06:00+28e22310 0.0 101138
09:00+34se343034 0.0 1012792
12:00+37se43210 0.0 10113024
15:00+38sse44197 0.0 10093733
18:00+37s442047 0.0 10092394
21:00+28nw473710 0.3 1011107
3 august, tue
tue300:00+27e234127 0.0 101019
03:00+27s344037 0.0 101059
06:00+28ssw35355 0.0 101190
09:00+35s561753 0.0 1011804
12:00+39s771136 0.0 10103138
15:00+39s66100 0.0 10093595
18:00+38s56100 0.0 10081153
21:00+31s49150 0.0 1008119
4 august, wed
wed400:00+30ssw481615 0.0 1008101
03:00+28sw342090 0.0 100844
06:00+25n6115399 0.1 1010258
09:00+30n454247 0.2 1012594
12:00+35nnw552959 0.0 10111837
15:00+35nw662670 0.0 10112614
18:00+33nnw542659 0.0 10122156
21:00+28nnw510340 0.0 1013234
5 august, thu
thu500:00+25n6124141 0.0 1014473
03:00+23n510469 0.0 1015299
06:00+23n5949100 0.0 1015350
09:00+28nne663615 0.0 10161246
12:00+31n65240 0.0 10162288
15:00+32nne56212 0.0 10152524
18:00+31nne5521100 0.0 10151982
21:00+26nne33280 0.0 101521